Time,TemperatureF,DewpointF,PressureIn,WindDirection,WindDirectionDegrees,WindSpeedMPH,WindSpeedGustMPH,Humidity,HourlyPrecipIn,Conditions,Clouds,dailyrainin,SoftwareType,DateUTC
2013-10-24 00:08:00,49.2,27.1,30.18,SE,129,0.0,0.0,42,0.00,,,0.00,Wunderground v.1.15,2013-10-24 06:08:00,
2013-10-24 00:18:00,49.1,25.8,30.18,SE,129,0.0,0.0,40,0.00,,,0.00,Wunderground v.1.15,2013-10-24 06:18:00,
2013-10-24 00:28:00,49.6,28.0,30.17,SE,129,0.0,0.0,43,0.00,,,0.00,Wunderground v.1.15,2013-10-24 06:28:00,
2013-10-24 00:38:00,49.0,27.5,30.17,SE,129,0.0,0.0,43,0.00,,,0.00,Wunderground v.1.15,2013-10-24 06:38:00,
2013-10-24 00:48:00,48.9,27.4,30.18,SE,129,0.0,0.0,43,0.00,,,0.00,Wunderground v.1.15,2013-10-24 06:48:00,
2013-10-24 00:53:00,48.7,27.2,30.18,SE,129,0.0,0.0,43,0.00,,,0.00,Wunderground v.1.15,2013-10-24 06:53:00,
2013-10-24 00:59:00,48.3,27.4,30.18,SE,129,0.0,0.0,44,0.00,,,0.00,Wunderground v.1.15,2013-10-24 06:59:00,
2013-10-24 01:08:00,47.8,28.0,30.19,SE,129,0.0,0.0,46,0.00,,,0.00,Wunderground v.1.15,2013-10-24 07:08:00,
2013-10-24 01:18:00,47.9,28.6,30.19,SE,129,0.0,0.0,47,0.00,,,0.00,Wunderground v.1.15,2013-10-24 07:18:00,
2013-10-24 01:28:00,46.9,28.2,30.19,SE,129,0.0,0.0,48,0.00,,,0.00,Wunderground v.1.15,2013-10-24 07:28:00,
2013-10-24 01:33:00,46.4,28.8,30.20,SE,129,0.0,0.0,50,0.00,,,0.00,Wunderground v.1.15,2013-10-24 07:33:00,
2013-10-24 01:43:00,45.9,28.8,30.19,SE,129,0.0,0.0,51,0.00,,,0.00,Wunderground v.1.15,2013-10-24 07:43:00,
2013-10-24 01:53:00,45.6,29.4,30.20,SE,129,0.0,0.0,53,0.00,,,0.00,Wunderground v.1.15,2013-10-24 07:53:00,
2013-10-24 01:58:00,45.2,29.1,30.20,SE,129,0.0,0.0,53,0.00,,,0.00,Wunderground v.1.15,2013-10-24 07:58:00,
2013-10-24 02:08:00,44.8,29.2,30.20,SE,129,0.0,0.0,54,0.00,,,0.00,Wunderground v.1.15,2013-10-24 08:08:00,
2013-10-24 02:18:00,45.1,28.5,30.19,SE,129,0.0,0.0,52,0.00,,,0.00,Wunderground v.1.15,2013-10-24 08:18:00,
2013-10-24 02:28:00,46.1,29.4,30.19,SE,128,0.0,0.0,52,0.00,,,0.00,Wunderground v.1.15,2013-10-24 08:28:00,
2013-10-24 02:38:00,45.7,29.5,30.20,SE,128,0.0,0.0,53,0.00,,,0.00,Wunderground v.1.15,2013-10-24 08:38:00,
2013-10-24 02:48:00,45.0,29.8,30.20,SE,128,0.0,0.0,55,0.00,,,0.00,Wunderground v.1.15,2013-10-24 08:48:00,
2013-10-24 02:59:00,44.0,30.2,30.20,SE,128,0.0,0.0,58,0.00,,,0.00,Wunderground v.1.15,2013-10-24 08:59:00,
2013-10-24 03:08:00,43.6,29.8,30.20,SE,128,0.0,0.0,58,0.00,,,0.00,Wunderground v.1.15,2013-10-24 09:08:00,
2013-10-24 03:18:00,43.1,29.7,30.20,SE,128,0.0,0.0,59,0.00,,,0.00,Wunderground v.1.15,2013-10-24 09:18:00,
2013-10-24 03:28:00,43.3,29.5,30.21,SE,127,0.0,0.0,58,0.00,,,0.00,Wunderground v.1.15,2013-10-24 09:28:00,
2013-10-24 03:33:00,43.3,29.1,30.20,SE,127,0.0,0.0,57,0.00,,,0.00,Wunderground v.1.15,2013-10-24 09:33:00,
2013-10-24 03:43:00,43.5,29.3,30.20,ESE,119,0.0,0.0,57,0.00,,,0.00,Wunderground v.1.15,2013-10-24 09:43:00,
2013-10-24 03:53:00,44.0,28.4,30.20,ESE,121,0.0,0.0,54,0.00,,,0.00,Wunderground v.1.15,2013-10-24 09:53:00,
2013-10-24 03:58:00,44.4,28.3,30.20,ESE,110,0.0,0.0,53,0.00,,,0.00,Wunderground v.1.15,2013-10-24 09:58:00,
2013-10-24 04:08:00,45.0,27.9,30.20,West,261,0.0,1.0,51,0.00,,,0.00,Wunderground v.1.15,2013-10-24 10:08:00,
2013-10-24 04:18:00,44.5,28.9,30.19,West,266,0.0,0.0,54,0.00,,,0.00,Wunderground v.1.15,2013-10-24 10:18:00,
2013-10-24 04:28:00,43.6,28.5,30.19,West,266,0.0,0.0,55,0.00,,,0.00,Wunderground v.1.15,2013-10-24 10:28:00,
2013-10-24 04:38:00,43.0,28.8,30.19,West,266,0.0,0.0,57,0.00,,,0.00,Wunderground v.1.15,2013-10-24 10:38:00,
2013-10-24 04:48:00,42.3,29.0,30.19,ESE,114,0.0,0.0,59,0.00,,,0.00,Wunderground v.1.15,2013-10-24 10:48:00,
2013-10-24 04:59:00,41.9,29.0,30.19,ESE,117,0.0,0.0,60,0.00,,,0.00,Wunderground v.1.15,2013-10-24 10:59:00,
2013-10-24 05:08:00,42.1,28.8,30.20,South,169,0.0,0.0,59,0.00,,,0.00,Wunderground v.1.15,2013-10-24 11:08:00,
2013-10-24 05:18:00,41.6,29.1,30.20,South,169,0.0,0.0,61,0.00,,,0.00,Wunderground v.1.15,2013-10-24 11:18:00,
2013-10-24 05:28:00,41.3,29.3,30.20,South,169,0.0,0.0,62,0.00,,,0.00,Wunderground v.1.15,2013-10-24 11:28:00,
2013-10-24 05:33:00,41.1,29.1,30.20,South,169,0.0,0.0,62,0.00,,,0.00,Wunderground v.1.15,2013-10-24 11:33:00,
2013-10-24 05:43:00,40.8,29.2,30.20,SSE,160,0.0,0.0,63,0.00,,,0.00,Wunderground v.1.15,2013-10-24 11:43:00,
2013-10-24 05:53:00,40.4,29.2,30.20,SSE,160,0.0,0.0,64,0.00,,,0.00,Wunderground v.1.15,2013-10-24 11:53:00,
2013-10-24 05:58:00,40.2,29.4,30.21,SSE,160,0.0,0.0,65,0.00,,,0.00,Wunderground v.1.15,2013-10-24 11:58:00,
2013-10-24 06:08:00,40.0,29.2,30.21,SSE,160,0.0,0.0,65,0.00,,,0.00,Wunderground v.1.15,2013-10-24 12:08:00,
2013-10-24 06:18:00,39.4,29.7,30.21,SSE,160,0.0,0.0,68,0.00,,,0.00,Wunderground v.1.15,2013-10-24 12:18:00,
2013-10-24 06:28:00,39.1,29.8,30.21,SSE,160,0.0,0.0,69,0.00,,,0.00,Wunderground v.1.15,2013-10-24 12:28:00,
2013-10-24 06:38:00,39.1,30.1,30.20,SSE,160,0.0,0.0,70,0.00,,,0.00,Wunderground v.1.15,2013-10-24 12:38:00,
2013-10-24 06:48:00,39.2,29.5,30.21,SE,125,0.0,0.0,68,0.00,,,0.00,Wunderground v.1.15,2013-10-24 12:48:00,
2013-10-24 06:59:00,38.8,29.5,30.21,SE,125,0.0,0.0,69,0.00,,,0.00,Wunderground v.1.15,2013-10-24 12:59:00,
2013-10-24 07:08:00,38.4,29.8,30.21,SE,125,0.0,0.0,71,0.00,,,0.00,Wunderground v.1.15,2013-10-24 13:08:00,
2013-10-24 07:13:00,38.5,29.9,30.22,SE,125,0.0,0.0,71,0.00,,,0.00,Wunderground v.1.15,2013-10-24 13:13:00,
2013-10-24 07:23:00,38.9,29.9,30.22,SE,125,0.0,0.0,70,0.00,,,0.00,Wunderground v.1.15,2013-10-24 13:23:00,
2013-10-24 07:33:00,38.8,30.2,30.22,SE,125,0.0,0.0,71,0.00,,,0.00,Wunderground v.1.15,2013-10-24 13:33:00,
2013-10-24 07:43:00,39.2,30.6,30.22,SE,125,0.0,0.0,71,0.00,,,0.00,Wunderground v.1.15,2013-10-24 13:43:00,
2013-10-24 07:53:00,39.7,31.1,30.23,SE,125,0.0,0.0,71,0.00,,,0.00,Wunderground v.1.15,2013-10-24 13:53:00,
2013-10-24 07:58:00,40.3,30.9,30.23,SE,126,0.0,0.0,69,0.00,,,0.00,Wunderground v.1.15,2013-10-24 13:58:00,
2013-10-24 08:08:00,40.9,31.1,30.23,SE,126,0.0,0.0,68,0.00,,,0.00,Wunderground v.1.15,2013-10-24 14:08:00,
2013-10-24 08:18:00,41.1,30.2,30.24,SSW,212,0.0,0.0,65,0.00,,,0.00,Wunderground v.1.15,2013-10-24 14:18:00,
2013-10-24 08:23:00,41.0,30.1,30.24,SSW,212,0.0,0.0,65,0.00,,,0.00,Wunderground v.1.15,2013-10-24 14:23:00,
2013-10-24 08:33:00,40.6,30.1,30.25,SSW,212,0.0,0.0,66,0.00,,,0.00,Wunderground v.1.15,2013-10-24 14:33:00,
2013-10-24 08:43:00,42.2,30.5,30.25,SSW,212,0.0,0.0,63,0.00,,,0.00,Wunderground v.1.15,2013-10-24 14:43:00,
2013-10-24 08:53:00,46.6,32.2,30.25,SSW,211,0.0,0.0,57,0.00,,,0.00,Wunderground v.1.15,2013-10-24 14:53:00,
2013-10-24 08:58:00,49.0,32.6,30.25,SSW,211,0.0,0.0,53,0.00,,,0.00,Wunderground v.1.15,2013-10-24 14:58:00,
2013-10-24 09:08:00,50.6,31.6,30.25,SSW,213,0.0,0.0,48,0.00,,,0.00,Wunderground v.1.15,2013-10-24 15:08:00,
2013-10-24 09:18:00,51.4,31.3,30.25,SW,222,0.0,0.0,46,0.00,,,0.00,Wunderground v.1.15,2013-10-24 15:18:00,
2013-10-24 09:28:00,51.8,31.1,30.25,WSW,250,0.0,1.0,45,0.00,,,0.00,Wunderground v.1.15,2013-10-24 15:28:00,
2013-10-24 09:38:00,52.7,31.4,30.25,NNW,344,0.0,1.0,44,0.00,,,0.00,Wunderground v.1.15,2013-10-24 15:38:00,
2013-10-24 09:48:00,53.4,30.3,30.25,NW,326,0.0,1.0,41,0.00,,,0.00,Wunderground v.1.15,2013-10-24 15:48:00,
2013-10-24 09:59:00,53.9,30.1,30.25,West,276,1.0,1.0,40,0.00,,,0.00,Wunderground v.1.15,2013-10-24 15:59:00,
2013-10-24 10:08:00,54.8,30.3,30.25,WNW,287,0.0,0.0,39,0.00,,,0.00,Wunderground v.1.15,2013-10-24 16:08:00,
2013-10-24 10:18:00,55.6,29.7,30.25,NW,318,1.0,3.0,37,0.00,,,0.00,Wunderground v.1.15,2013-10-24 16:18:00,
2013-10-24 10:28:00,56.7,30.7,30.25,WNW,298,1.0,3.0,37,0.00,,,0.00,Wunderground v.1.15,2013-10-24 16:28:00,
2013-10-24 10:38:00,57.7,30.2,30.25,NNW,340,1.0,1.0,35,0.00,,,0.00,Wunderground v.1.15,2013-10-24 16:38:00,
2013-10-24 10:48:00,58.7,29.6,30.24,WNW,302,1.0,1.0,33,0.00,,,0.00,Wunderground v.1.15,2013-10-24 16:48:00,
2013-10-24 10:58:00,59.3,28.6,30.24,NNW,330,2.0,2.0,31,0.00,,,0.00,Wunderground v.1.15,2013-10-24 16:58:00,
2013-10-24 11:08:00,60.2,28.6,30.24,NNW,345,2.0,2.0,30,0.00,,,0.00,Wunderground v.1.15,2013-10-24 17:08:00,
2013-10-24 11:13:00,60.3,28.7,30.24,North,8,3.0,5.0,30,0.00,,,0.00,Wunderground v.1.15,2013-10-24 17:13:00,
2013-10-24 11:23:00,61.0,29.3,30.24,WSW,237,3.0,3.0,30,0.00,,,0.00,Wunderground v.1.15,2013-10-24 17:23:00,
2013-10-24 11:33:00,62.2,28.7,30.23,NW,312,2.0,3.0,28,0.00,,,0.00,Wunderground v.1.15,2013-10-24 17:33:00,
2013-10-24 11:43:00,62.7,30.0,30.23,NNW,329,2.0,3.0,29,0.00,,,0.00,Wunderground v.1.15,2013-10-24 17:43:00,
2013-10-24 11:48:00,63.1,28.5,30.23,WSW,239,2.0,2.0,27,0.00,,,0.00,Wunderground v.1.15,2013-10-24 17:48:00,
2013-10-24 11:58:00,63.3,28.7,30.23,North,358,2.0,2.0,27,0.00,,,0.00,Wunderground v.1.15,2013-10-24 17:58:00,
2013-10-24 12:08:00,64.1,30.3,30.22,NNE,15,1.0,1.0,28,0.00,,,0.00,Wunderground v.1.15,2013-10-24 18:08:00,
2013-10-24 12:13:00,64.7,29.9,30.22,West,269,1.0,2.0,27,0.00,,,0.00,Wunderground v.1.15,2013-10-24 18:13:00,
2013-10-24 12:23:00,66.0,29.1,30.21,NW,321,2.0,3.0,25,0.00,,,0.00,Wunderground v.1.15,2013-10-24 18:23:00,
2013-10-24 12:33:00,66.9,28.9,30.21,ESE,122,2.0,2.0,24,0.00,,,0.00,Wunderground v.1.15,2013-10-24 18:33:00,
2013-10-24 12:43:00,68.1,29.9,30.20,South,183,1.0,2.0,24,0.00,,,0.00,Wunderground v.1.15,2013-10-24 18:43:00,
2013-10-24 12:53:00,68.7,28.3,30.20,SE,143,3.0,5.0,22,0.00,,,0.00,Wunderground v.1.15,2013-10-24 18:53:00,
2013-10-24 12:59:00,68.0,28.8,30.19,SE,146,4.0,8.0,23,0.00,,,0.00,Wunderground v.1.15,2013-10-24 18:59:00,
2013-10-24 13:08:00,68.8,29.5,30.18,WNW,289,2.0,2.0,23,0.00,,,0.00,Wunderground v.1.15,2013-10-24 19:08:00,
2013-10-24 13:18:00,69.7,29.1,30.18,ENE,74,2.0,3.0,22,0.00,,,0.00,Wunderground v.1.15,2013-10-24 19:18:00,
2013-10-24 13:28:00,71.2,29.2,30.17,SSE,149,1.0,7.0,21,0.00,,,0.00,Wunderground v.1.15,2013-10-24 19:28:00,
2013-10-24 13:38:00,70.9,29.0,30.16,SE,139,2.0,2.0,21,0.00,,,0.00,Wunderground v.1.15,2013-10-24 19:38:00,
2013-10-24 13:48:00,70.2,28.4,30.15,SSE,148,4.0,4.0,21,0.00,,,0.00,Wunderground v.1.15,2013-10-24 19:48:00,
2013-10-24 13:58:00,70.2,29.5,30.15,SSW,203,4.0,4.0,22,0.00,,,0.00,Wunderground v.1.15,2013-10-24 19:58:00,
2013-10-24 14:08:00,69.7,30.2,30.14,West,269,2.0,2.0,23,0.00,,,0.00,Wunderground v.1.15,2013-10-24 20:08:00,
2013-10-24 14:13:00,70.4,30.8,30.14,ESE,121,1.0,2.0,23,0.00,,,0.00,Wunderground v.1.15,2013-10-24 20:13:00,
2013-10-24 14:23:00,71.5,29.5,30.13,SSE,151,2.0,2.0,21,0.00,,,0.00,Wunderground v.1.15,2013-10-24 20:23:00,
2013-10-24 14:33:00,71.8,29.7,30.12,East,84,2.0,2.0,21,0.00,,,0.00,Wunderground v.1.15,2013-10-24 20:33:00,
2013-10-24 14:43:00,72.0,31.0,30.12,SSW,205,2.0,3.0,22,0.00,,,0.00,Wunderground v.1.15,2013-10-24 20:43:00,
2013-10-24 14:53:00,73.3,29.8,30.12,SSW,197,2.0,4.0,20,0.00,,,0.00,Wunderground v.1.15,2013-10-24 20:53:00,
2013-10-24 14:59:00,73.3,31.0,30.11,SW,228,2.0,2.0,21,0.00,,,0.00,Wunderground v.1.15,2013-10-24 20:59:00,
2013-10-24 15:08:00,73.5,31.1,30.11,South,191,3.0,4.0,21,0.00,,,0.00,Wunderground v.1.15,2013-10-24 21:08:00,
2013-10-24 15:18:00,73.4,29.9,30.11,SSE,165,2.0,2.0,20,0.00,,,0.00,Wunderground v.1.15,2013-10-24 21:18:00,
2013-10-24 15:28:00,73.0,29.5,30.10,SW,214,3.0,3.0,20,0.00,,,0.00,Wunderground v.1.15,2013-10-24 21:28:00,
2013-10-24 15:33:00,73.1,29.6,30.10,South,180,4.0,6.0,20,0.00,,,0.00,Wunderground v.1.15,2013-10-24 21:33:00,
2013-10-24 15:43:00,72.5,29.1,30.10,South,184,4.0,6.0,20,0.00,,,0.00,Wunderground v.1.15,2013-10-24 21:43:00,
2013-10-24 15:53:00,72.9,30.6,30.10,ESE,115,3.0,4.0,21,0.00,,,0.00,Wunderground v.1.15,2013-10-24 21:53:00,
2013-10-24 15:58:00,72.3,30.1,30.10,SE,129,3.0,5.0,21,0.00,,,0.00,Wunderground v.1.15,2013-10-24 21:58:00,
2013-10-24 16:08:00,72.5,30.3,30.09,SSE,164,4.0,4.0,21,0.00,,,0.00,Wunderground v.1.15,2013-10-24 22:08:00,
2013-10-24 16:18:00,73.1,29.6,30.09,SSW,195,3.0,3.0,20,0.00,,,0.00,Wunderground v.1.15,2013-10-24 22:18:00,
2013-10-24 16:28:00,73.7,31.3,30.09,SSW,194,1.0,1.0,21,0.00,,,0.00,Wunderground v.1.15,2013-10-24 22:28:00,
2013-10-24 16:38:00,74.0,30.4,30.09,SSE,158,2.0,5.0,20,0.00,,,0.00,Wunderground v.1.15,2013-10-24 22:38:00,
2013-10-24 16:43:00,73.4,29.9,30.09,SE,132,3.0,5.0,20,0.00,,,0.00,Wunderground v.1.15,2013-10-24 22:43:00,
2013-10-24 16:53:00,73.5,29.9,30.09,SSW,201,1.0,3.0,20,0.00,,,0.00,Wunderground v.1.15,2013-10-24 22:53:00,
2013-10-24 16:59:00,73.9,30.3,30.09,SSW,198,1.0,1.0,20,0.00,,,0.00,Wunderground v.1.15,2013-10-24 22:59:00,
2013-10-24 17:08:00,74.1,29.2,30.09,SE,142,3.0,5.0,19,0.00,,,0.00,Wunderground v.1.15,2013-10-24 23:08:00,
2013-10-24 17:18:00,73.4,31.1,30.08,SSW,205,2.0,2.0,21,0.00,,,0.00,Wunderground v.1.15,2013-10-24 23:18:00,
2013-10-24 17:28:00,72.6,30.4,30.08,SSW,211,1.0,1.0,21,0.00,,,0.00,Wunderground v.1.15,2013-10-24 23:28:00,
2013-10-24 17:38:00,71.5,30.6,30.08,SE,136,1.0,2.0,22,0.00,,,0.00,Wunderground v.1.15,2013-10-24 23:38:00,
2013-10-24 17:43:00,71.0,31.3,30.08,SE,136,1.0,2.0,23,0.00,,,0.00,Wunderground v.1.15,2013-10-24 23:43:00,
2013-10-24 17:53:00,70.4,31.9,30.08,SE,125,0.0,2.0,24,0.00,,,0.00,Wunderground v.1.15,2013-10-24 23:53:00,
2013-10-24 17:58:00,69.9,30.4,30.08,SE,129,0.0,1.0,23,0.00,,,0.00,Wunderground v.1.15,2013-10-24 23:58:00,
2013-10-24 18:08:00,68.5,33.2,30.08,SE,128,0.0,0.0,27,0.00,,,0.00,Wunderground v.1.15,2013-10-25 00:08:00,
2013-10-24 18:18:00,66.7,34.3,30.09,SE,125,0.0,0.0,30,0.00,,,0.00,Wunderground v.1.15,2013-10-25 00:18:00,
2013-10-24 18:28:00,65.1,34.5,30.09,SE,125,0.0,0.0,32,0.00,,,0.00,Wunderground v.1.15,2013-10-25 00:28:00,
2013-10-24 18:38:00,63.8,34.9,30.09,SE,125,0.0,0.0,34,0.00,,,0.00,Wunderground v.1.15,2013-10-25 00:38:00,
2013-10-24 18:48:00,62.7,34.6,30.09,SE,125,0.0,0.0,35,0.00,,,0.00,Wunderground v.1.15,2013-10-25 00:48:00,
2013-10-24 18:59:00,62.0,34.7,30.09,SE,125,0.0,0.0,36,0.00,,,0.00,Wunderground v.1.15,2013-10-25 00:59:00,
2013-10-24 19:08:00,62.0,33.3,30.10,SE,125,0.0,0.0,34,0.00,,,0.00,Wunderground v.1.15,2013-10-25 01:08:00,
2013-10-24 19:18:00,62.5,33.7,30.10,SE,125,0.0,0.0,34,0.00,,,0.00,Wunderground v.1.15,2013-10-25 01:18:00,
2013-10-24 19:28:00,62.2,33.5,30.10,SE,125,0.0,0.0,34,0.00,,,0.00,Wunderground v.1.15,2013-10-25 01:28:00,
2013-10-24 19:38:00,62.3,33.6,30.11,SE,125,0.0,0.0,34,0.00,,,0.00,Wunderground v.1.15,2013-10-25 01:38:00,
2013-10-24 19:43:00,62.9,31.8,30.11,ESE,122,0.0,0.0,31,0.00,,,0.00,Wunderground v.1.15,2013-10-25 01:43:00,
2013-10-24 19:53:00,65.8,29.0,30.12,East,94,3.0,5.0,25,0.00,,,0.00,Wunderground v.1.15,2013-10-25 01:53:00,
2013-10-24 19:58:00,66.7,28.7,30.12,SE,145,3.0,3.0,24,0.00,,,0.00,Wunderground v.1.15,2013-10-25 01:58:00,
2013-10-24 20:08:00,67.3,29.2,30.13,ESE,117,5.0,5.0,24,0.00,,,0.00,Wunderground v.1.15,2013-10-25 02:08:00,
2013-10-24 20:18:00,67.3,28.2,30.14,SE,146,4.0,7.0,23,0.00,,,0.00,Wunderground v.1.15,2013-10-25 02:18:00,
2013-10-24 20:28:00,67.3,28.2,30.17,SSE,162,3.0,4.0,23,0.00,,,0.00,Wunderground v.1.15,2013-10-25 02:28:00,
2013-10-24 20:38:00,64.8,39.9,30.20,SW,222,6.0,19.0,40,0.00,,,0.00,Wunderground v.1.15,2013-10-25 02:38:00,
2013-10-24 20:48:00,59.9,45.5,30.23,SSW,200,8.0,8.0,59,0.00,,,0.00,Wunderground v.1.15,2013-10-25 02:48:00,
2013-10-24 20:58:00,57.6,46.3,30.23,SW,219,3.0,3.0,66,0.00,,,0.00,Wunderground v.1.15,2013-10-25 02:58:00,
2013-10-24 21:03:00,57.0,47.3,30.22,SW,217,1.0,3.0,70,0.00,,,0.01,Wunderground v.1.15,2013-10-25 03:03:00,
2013-10-24 21:13:00,56.1,47.9,30.21,NNE,19,0.0,0.0,74,0.00,,,0.01,Wunderground v.1.15,2013-10-25 03:13:00,
2013-10-24 21:23:00,55.6,47.8,30.19,NE,56,0.0,2.0,75,0.00,,,0.01,Wunderground v.1.15,2013-10-25 03:23:00,
2013-10-24 21:33:00,55.6,46.7,30.19,NNE,25,1.0,2.0,72,0.00,,,0.01,Wunderground v.1.15,2013-10-25 03:33:00,
2013-10-24 21:43:00,56.3,46.3,30.19,NNW,345,3.0,6.0,69,0.00,,,0.01,Wunderground v.1.15,2013-10-25 03:43:00,
2013-10-24 21:53:00,56.8,45.6,30.19,NNE,23,2.0,6.0,66,0.00,,,0.01,Wunderground v.1.15,2013-10-25 03:53:00,
2013-10-24 21:59:00,57.0,45.7,30.20,NE,41,2.0,2.0,66,0.00,,,0.01,Wunderground v.1.15,2013-10-25 03:59:00,
2013-10-24 22:03:00,57.0,45.7,30.20,East,79,1.0,2.0,66,0.00,,,0.01,Wunderground v.1.15,2013-10-25 04:03:00,
2013-10-24 22:13:00,56.9,46.1,30.22,NNW,330,1.0,2.0,67,0.00,,,0.01,Wunderground v.1.15,2013-10-25 04:13:00,
2013-10-24 22:18:00,57.0,46.1,30.22,NW,323,2.0,2.0,67,0.00,,,0.01,Wunderground v.1.15,2013-10-25 04:18:00,
2013-10-24 22:23:00,57.1,45.8,30.23,WNW,302,3.0,11.0,66,0.00,,,0.01,Wunderground v.1.15,2013-10-25 04:23:00,
2013-10-24 22:28:00,55.9,48.1,30.24,NNW,335,5.0,5.0,75,0.00,,,0.02,Wunderground v.1.15,2013-10-25 04:28:00,
2013-10-24 22:38:00,54.0,48.0,30.25,NNE,22,5.0,5.0,80,0.07,,,0.03,Wunderground v.1.15,2013-10-25 04:38:00,
2013-10-24 22:48:00,53.1,48.1,30.24,NNE,26,2.0,2.0,83,0.00,,,0.03,Wunderground v.1.15,2013-10-25 04:48:00,
2013-10-24 22:58:00,52.9,47.9,30.23,NNE,15,4.0,4.0,83,0.00,,,0.03,Wunderground v.1.15,2013-10-25 04:58:00,
2013-10-24 23:03:00,52.8,48.1,30.23,NE,45,4.0,4.0,84,0.00,,,0.03,Wunderground v.1.15,2013-10-25 05:03:00,
2013-10-24 23:13:00,52.7,47.7,30.21,NE,49,4.0,5.0,83,0.00,,,0.03,Wunderground v.1.15,2013-10-25 05:13:00,
2013-10-24 23:23:00,53.0,47.3,30.21,NNE,21,5.0,7.0,81,0.00,,,0.03,Wunderground v.1.15,2013-10-25 05:23:00,
2013-10-24 23:33:00,53.4,46.4,30.20,NNW,331,6.0,8.0,77,0.00,,,0.04,Wunderground v.1.15,2013-10-25 05:33:00,
2013-10-24 23:43:00,53.5,46.5,30.19,NNE,26,6.0,7.0,77,0.00,,,0.04,Wunderground v.1.15,2013-10-25 05:43:00,
2013-10-24 23:48:00,53.2,46.5,30.18,North,9,5.0,5.0,78,0.00,,,0.04,Wunderground v.1.15,2013-10-25 05:48:00,
2013-10-24 23:59:00,53.3,45.9,30.17,ENE,61,4.0,5.0,76,0.00,,,0.00,Wunderground v.1.15,2013-10-25 05:59:00,